Location: Unspecified
(47.6578°N, 23.5640°E)
Time: 14:31:21
(UTC+02:00)

ISS - Pass Details

Date: 05 December 2017
Orbit: 403 x 407 km, 51.6° (Epoch: 12 December)

Event Time Altitude Azimuth Distance (km) Brightness Sun altitude
Rises 17:58:30 0° 266° (W) 2,327 1.7 -13.5°
Reaches altitude 10° 18:00:38 10° 273° (W) 1,468 0.2 -13.8°
Maximum altitude 18:03:50 47° 348° (NNW) 552 -3.3 -14.3°
Enters shadow 18:05:10 28° 46° (NE) 792 -2.9 -14.6°
